Weather Service Report


479 
ASUS41 KBTV 260630
RWRBTV
VERMONT REGIONAL WEATHER ROUNDUP
NATIONAL WEATHER SERVICE BURLINGTON VT
200 AM EDT TUE JUL 26 2016

NOTE: "FAIR" INDICATES FEW OR NO CLOUDS BELOW 12,000 FEET WITH NO 
SIGNIFICANT WEATHER AND/OR OBSTRUCTIONS TO VISIBILITY.

* THESE REPORTS ARE NOT UNDER NWS QUALITY CONTROL AND/OR DO NOT
  REPORT WEATHER SUCH AS PRECIPITATION AND FOG.

VTZ001>019-260700-
_____VERMONT_____

  
CITY           SKY/WX    TMP DP  RH WIND       PRES   REMARKS
BURLINGTON     FAIR      74  67  78 S5        29.76S                  
6HR MIN TEMP:  74; 6HR MAX TEMP:  79;                                

MONTPELIER     FAIR      67  65  93 CALM      29.82F                  
6HR MIN TEMP:  67; 6HR MAX TEMP:  76;                                

MORRISVILLE    MOCLDY    71  65  81 S5        29.78S                  
6HR MIN TEMP:  68; 6HR MAX TEMP:  75;                                

ST. JOHNSBURY*   N/A     67  65  93 MISG      29.75S                  
6HR MIN TEMP:  67; 6HR MAX TEMP:  76;                                

LYNDONVILLE*   MOCLDY    66  65  97 CALM      29.79F                  
6HR MIN TEMP:  65; 6HR MAX TEMP:  72;                                

MIDDLEBURY*    MOCLDY    72  69  89 SE5       29.79S                  
6HR MIN TEMP:  73; 6HR MAX TEMP:  76;                                

RUTLAND*       FAIR      73  68  84 SW7       29.81F                  
6HR MIN TEMP:  73; 6HR MAX TEMP:  79;                                

SPRINGFIELD    FAIR      67  64  90 CALM      29.80S                  
6HR MIN TEMP:  66; 6HR MAX TEMP:  79;                                

HIGHGATE*      CLOUDY    74  66  76 SW5       29.73F                  
6HR MIN TEMP:  73; 6HR MAX TEMP:  76;                                

NEWPORT*       FAIR      71  66  84 SW5       29.76F                  
6HR MIN TEMP:  66; 6HR MAX TEMP:  72;                                

BENNINGTON     MOCLDY    69  66  90 CALM      29.84F                  
6HR MIN TEMP:  69; 6HR MAX TEMP:  77;                                

SUTTON*          N/A     66 N/A N/A MISG        N/A                   
GALLUP MILLS*    N/A     61 N/A N/A MISG        N/A                   
UNION VILLAGE*   N/A     64 N/A N/A MISG        N/A                   
MT. MANSFIELD*   N/A     61 N/A N/A NW38        N/A                   

_____LAKE CHAMPLAIN_____

  
CITY           SKY/WX    TMP DP  RH WIND       PRES   REMARKS

$$

NYZ007-026>031-035-052-083-087-260700-
_____NORTHERN NEW YORK_____

  
CITY           SKY/WX    TMP DP  RH WIND       PRES   REMARKS
PLATTSBURGH    CLEAR     73  66  78 VRB5      29.74S                  
6HR MIN TEMP:  70; 6HR MAX TEMP:  77;                                

SARANAC LAKE   CLEAR     67  63  87 SW8       29.84S                  
6HR MIN TEMP:  67; 6HR MAX TEMP:  72;                                

MASSENA        CLEAR     68  64  87 SW6       29.77S                  
6HR MIN TEMP:  68; 6HR MAX TEMP:  77; 6HR PCP:  0.86;                

OGDENSBURG*    CLEAR     70  63  78 SW5       29.79S                  
POTSDAM*       CLEAR     68  64  88 SW7       29.79F                  
STARK FALLS*     N/A     88 N/A N/A SW2         N/A                   
WATERTOWN      PTCLDY    73  62  68 W9        29.83S                  
6HR MIN TEMP:  68; 6HR MAX TEMP:  77;                                

FT DRUM        PTCLDY    72  61  69 W8        29.83S                  
6HR MIN TEMP:  71; 6HR MAX TEMP:  76;                                

ALBANY         CLOUDY    73  69  87 CALM      29.84S                  
6HR MIN TEMP:  71; 6HR MAX TEMP:  79;                                

GLENS FALLS    PTCLDY    70  67  90 CALM      29.80F                  
6HR MIN TEMP:  70; 6HR MAX TEMP:  80;                                


$$
NHZ002-005-011-260700-
_____NEW HAMPSHIRE_____

  
CITY           SKY/WX    TMP DP  RH WIND       PRES   REMARKS
LEBANON        CLEAR     65  63  93 S3        29.77S FOG              
6HR MIN TEMP:  66; 6HR MAX TEMP:  76;                                

KEENE          CLEAR     70  67  90 S5        29.81                   
6HR MIN TEMP:  70; 6HR MAX TEMP:  83;                                

MT WASHINGTON  DRZL/FOG  55  55 100 W52G58      N/A  VSB 0            
6HR MIN TEMP:  53; 6HR MAX TEMP:  57; 6HR PCP:  0.01;                

PLYMOUTH       FAIR      65  64  96 CALM      29.75S FOG              
6HR MIN TEMP:  65; 6HR MAX TEMP:  76;                                

WHITEFIELD     PTCLDY    64  62  93 W3        29.77F FOG              
6HR MIN TEMP:  63; 6HR MAX TEMP:  73;                                


$$

_____REGIONAL QUEBEC LOCATIONS_____

  
CITY           SKY/WX    TMP DP  RH WIND       PRES   REMARKS
MONTREAL       PTCLDY    70  68  94 VRB2      29.71S                  
QUEBEC CITY    DRIZZLE   64  63  94 NE5       29.69S FOG              
SHERBROOKE     MOCLDY    66  66 100 VRB2      29.72F                  

_____REGIONAL ONTARIO LOCATIONS_____

  
CITY           SKY/WX    TMP DP  RH WIND       PRES   REMARKS
OTTAWA         PTCLDY    70  61  73 W9        29.76S                  

______KEY______
VSB  - VISIBILITY IN MILES
WCI  - WIND CHILL INDEX
HX   - HEAT INDEX
$$
NNNN
  

Return to Home page


Western Regional Climate Center, wrcc@dri.edu